FW9406 Weather Reports


Display with metric or nautical units.
time (UTC)temp
F
wind
direction
speed
MPH
gust
MPH
rain 1hr
in
rain 24hr
in
rain mn
in
humidity
%
barometer
mb
20260505003956 67 209 0.0 0.0 0.00 0.00 0.00 52 1016.9
20260505003454 68 209 0.0 0.0 0.00 0.00 0.00 52 1016.9
20260505002950 69 175 0.0 0.0 0.00 0.00 0.00 51 1016.9
20260505002446 69 208 0.0 0.0 0.00 0.00 0.00 50 1016.6
20260505001945 70 208 0.0 0.0 0.00 0.00 0.00 46 1016.6
20260505001442 71 206 0.0 0.0 0.00 0.00 0.00 45 1016.6
20260505000939 72 158 1.0 1.0 0.00 0.00 0.00 45 1016.6
20260505000437 73 197 0.0 0.0 0.00 0.00 0.00 41 1016.6
20260504235933 73 211 0.0 0.0 0.00 0.00 0.00 38 1016.6
20260504235431 74 220 0.0 0.0 0.00 0.00 0.00 37 1016.6
20260504234927 74 249 1.0 1.0 0.00 0.00 0.00 37 1016.6
20260504234424 75 212 0.0 1.0 0.00 0.00 0.00 36 1016.9
20260504233921 76 225 0.0 2.0 0.00 0.00 0.00 35 1016.9
20260504233417 76 231 0.0 1.0 0.00 0.00 0.00 35 1016.9
20260504232914 77 133 1.0 1.0 0.00 0.00 0.00 35 1016.9
20260504232411 77 210 2.0 3.0 0.00 0.00 0.00 34 1016.6
20260504231908 78 258 1.0 2.0 0.00 0.00 0.00 34 1016.6
20260504231404 78 241 0.0 1.0 0.00 0.00 0.00 33 1016.6
20260504230901 78 240 2.0 2.0 0.00 0.00 0.00 33 1016.6
20260504230358 78 188 3.0 4.0 0.00 0.00 0.00 32 1016.6
20260504225856 79 241 0.0 1.0 0.00 0.00 0.00 34 1016.6
20260504225352 79 214 1.0 3.0 0.00 0.00 0.00 32 1016.6
20260504224850 79 239 0.0 6.0 0.00 0.00 0.00 33 1016.6
20260504224347 78 239 0.0 1.0 0.00 0.00 0.00 34 1016.6
20260504223843 78 209 0.0 0.0 0.00 0.00 0.00 31 1016.6
20260504223339 78 223 1.0 2.0 0.00 0.00 0.00 29 1016.6
20260504222836 78 226 0.0 1.0 0.00 0.00 0.00 31 1016.6
20260504222332 77 229 0.0 2.0 0.00 0.00 0.00 31 1016.6
20260504221831 79 235 0.0 2.0 0.00 0.00 0.00 29 1016.6
20260504221327 78 252 3.0 3.0 0.00 0.00 0.00 28 1016.6
20260504220825 80 239 1.0 3.0 0.00 0.00 0.00 26 1016.6
20260504220321 78 245 1.0 2.0 0.00 0.00 0.00 26 1016.6
20260504215819 79 178 4.0 6.0 0.00 0.00 0.00 26 1016.6
20260504215315 80 266 4.0 6.0 0.00 0.00 0.00 26 1016.6
20260504214811 80 256 1.0 4.0 0.00 0.00 0.00 26 1016.6
20260504214308 78 159 1.0 3.0 0.00 0.00 0.00 29 1016.6
20260504213804 77 127 2.0 7.0 0.00 0.00 0.00 30 1016.6
20260504213300 78 175 6.0 8.0 0.00 0.00 0.00 31 1016.6
20260504212758 78 242 0.0 2.0 0.00 0.00 0.00 33 1016.6
20260504212254 78 98 4.0 8.0 0.00 0.00 0.00 33 1016.6
20260504211752 78 158 3.0 6.0 0.00 0.00 0.00 33 1016.6
20260504211247 78 111 6.0 9.0 0.00 0.00 0.00 31 1016.6
20260504210745 78 88 2.0 4.0 0.00 0.00 0.00 33 1016.6
20260504210242 78 201 0.0 4.0 0.00 0.00 0.00 35 1016.6
20260504205739 78 158 4.0 7.0 0.00 0.00 0.00 32 1016.6
20260504205237 79 142 1.0 6.0 0.00 0.00 0.00 33 1016.6
20260504204735 79 250 0.0 3.0 0.00 0.00 0.00 34 1016.9
20260504204233 79 233 1.0 3.0 0.00 0.00 0.00 34 1016.6
20260504203732 79 106 3.0 4.0 0.00 0.00 0.00 34 1016.6
20260504203229 78 282 2.0 7.0 0.00 0.00 0.00 34 1016.6
20260504202729 78 162 1.0 4.0 0.00 0.00 0.00 33 1017.2
20260504202226 78 260 1.0 3.0 0.00 0.00 0.00 32 1016.9
20260504201724 79 175 3.0 7.0 0.00 0.00 0.00 32 1016.9
20260504201221 80 252 5.0 6.0 0.00 0.00 0.00 31 1016.9
20260504200718 78 240 1.0 2.0 0.00 0.00 0.00 31 1017.2
20260504200214 79 127 5.0 7.0 0.00 0.00 0.00 32 1017.2
20260504195711 78 314 2.0 4.0 0.00 0.00 0.00 32 1017.2
20260504195207 78 121 2.0 4.0 0.00 0.00 0.00 33 1017.6
20260504194704 78 209 1.0 1.0 0.00 0.00 0.00 33 1017.2
20260504194200 78 260 2.0 4.0 0.00 0.00 0.00 33 1017.6
20260504193656 78 97 2.0 4.0 0.00 0.00 0.00 34 1017.2
20260504193154 77 285 1.0 3.0 0.00 0.00 0.00 35 1017.6
20260504192652 78 157 4.0 4.0 0.00 0.00 0.00 33 1017.6
20260504192150 77 176 1.0 3.0 0.00 0.00 0.00 34 1017.9
20260504191648 78 238 4.0 7.0 0.00 0.00 0.00 34 1017.9
20260504191144 79 150 3.0 4.0 0.00 0.00 0.00 31 1017.9
20260504190640 78 256 4.0 6.0 0.00 0.00 0.00 30 1018.3
20260504190137 76 206 0.0 2.0 0.00 0.00 0.00 37 1018.3
20260504185633 77 72 3.0 3.0 0.00 0.00 0.00 33 1018.3
20260504185130 78 175 1.0 3.0 0.00 0.00 0.00 34 1018.6
20260504184626 77 288 2.0 3.0 0.00 0.00 0.00 31 1018.3
20260504184121 76 346 1.0 6.0 0.00 0.00 0.00 32 1018.6
20260504183619 77 259 0.0 3.0 0.00 0.00 0.00 31 1018.6
20260504183116 76 226 0.0 3.0 0.00 0.00 0.00 37 1018.6
20260504182614 75 127 1.0 2.0 0.00 0.00 0.00 32 1018.6
20260504182111 76 71 2.0 3.0 0.00 0.00 0.00 31 1018.6
20260504181608 78 144 4.0 8.0 0.00 0.00 0.00 33 1018.6
20260504181106 77 224 0.0 2.0 0.00 0.00 0.00 36 1018.6
20260504180605 76 225 3.0 3.0 0.00 0.00 0.00 37 1018.9
20260504180103 74 171 3.0 6.0 0.00 0.00 0.00 36 1018.9
20260504175600 75 134 5.0 6.0 0.00 0.00 0.00 34 1018.9
20260504175056 75 112 5.0 6.0 0.00 0.00 0.00 35 1018.9
20260504174555 75 92 2.0 6.0 0.00 0.00 0.00 37 1018.9
20260504174051 76 307 2.0 3.0 0.00 0.00 0.00 38 1018.9
20260504173548 75 230 0.0 2.0 0.00 0.00 0.00 37 1019.3
20260504173046 74 238 2.0 3.0 0.00 0.00 0.00 38 1018.9
20260504172541 76 255 4.0 4.0 0.00 0.00 0.00 35 1019.3
20260504172038 75 226 3.0 4.0 0.00 0.00 0.00 39 1019.3
20260504171535 75 237 2.0 6.0 0.00 0.00 0.00 37 1019.3
20260504171032 74 166 1.0 7.0 0.00 0.00 0.00 37 1019.3
20260504170528 75 225 0.0 2.0 0.00 0.00 0.00 43 1019.3
20260504150912 71 214 1.0 4.0 0.00 0.00 0.00 39 1020.7
20260504150409 71 298 3.0 6.0 0.00 0.00 0.00 36 1020.7
20260504140835 68 123 1.0 2.0 0.00 0.00 0.00 56 1021.1
20260504140330 66 156 1.0 2.0 0.00 0.00 0.00 61 1021.1
20260504130800 59 221 1.0 1.0 0.00 0.00 0.00 81 1021.1
20260504130256 58 210 0.0 1.0 0.00 0.00 0.00 83 1020.7
20260504120219 48 239 1.0 2.0 0.00 0.00 0.00 99 1020.4
20260504110646 45 207 0.0 0.0 0.00 0.00 0.00 99 1020.4
20260504110143 45 223 0.0 0.0 0.00 0.00 0.00 99 1020.1
20260504100603 45 230 0.0 0.0 0.00 0.00 0.00 99 1020.1
20260504081956 47 236 0.0 0.0 0.00 0.00 0.00 99 1020.1
20260504081454 47 237 0.0 0.0 0.00 0.00 0.00 99 1020.1
20260504080949 46 228 0.0 0.0 0.00 0.00 0.00 99 1020.1
20260504080446 46 227 0.0 0.0 0.00 0.00 0.00 99 1020.1
20260504050259 50 229 0.0 0.0 0.00 0.00 0.00 97 1020.7
20260504045751 50 229 0.0 0.0 0.00 0.00 0.00 97 1020.7
20260504045250 50 230 0.0 0.0 0.00 0.00 0.00 96 1021.1
20260504044748 50 230 0.0 0.0 0.00 0.00 0.00 96 1020.7
20260504044245 49 229 0.0 0.0 0.00 0.00 0.00 95 1020.7
20260504043742 50 229 0.0 0.0 0.00 0.00 0.00 95 1020.7
20260504043239 51 229 0.0 0.0 0.00 0.00 0.00 95 1020.7
20260504042737 51 224 0.0 0.0 0.00 0.00 0.00 95 1020.7
20260504042233 51 211 0.0 0.0 0.00 0.00 0.00 95 1020.4
20260504041729 51 224 0.0 0.0 0.00 0.00 0.00 94 1020.7
20260504041225 51 216 0.0 0.0 0.00 0.00 0.00 93 1020.4
20260504040722 51 222 0.0 0.0 0.00 0.00 0.00 94 1020.4
20260504040219 51 233 0.0 0.0 0.00 0.00 0.00 93 1020.7
20260504035715 51 226 0.0 0.0 0.00 0.00 0.00 93 1020.7
20260504035213 52 198 0.0 0.0 0.00 0.00 0.00 92 1020.4
20260504034710 52 192 0.0 0.0 0.00 0.00 0.00 92 1020.4
20260504034207 52 171 1.0 1.0 0.00 0.00 0.00 93 1020.4
20260504033705 52 208 0.0 0.0 0.00 0.00 0.00 91 1020.4
20260504033202 52 205 0.0 0.0 0.00 0.00 0.00 91 1020.7
20260504032658 53 203 0.0 1.0 0.00 0.00 0.00 91 1020.4
20260504032156 53 217 0.0 0.0 0.00 0.00 0.00 90 1020.1
20260504031653 53 200 0.0 0.0 0.00 0.00 0.00 90 1020.4
20260504031149 53 216 0.0 0.0 0.00 0.00 0.00 90 1020.4
20260504030646 53 217 0.0 0.0 0.00 0.00 0.00 88 1020.4
20260504030143 54 217 0.0 0.0 0.00 0.00 0.00 87 1020.4
20260504025639 53 230 0.0 0.0 0.00 0.00 0.00 86 1020.4
20260504025136 54 231 0.0 0.0 0.00 0.00 0.00 85 1020.4
20260504024633 54 217 0.0 0.0 0.00 0.00 0.00 85 1020.1
20260504024130 55 204 0.0 0.0 0.00 0.00 0.00 84 1020.1
20260504023627 55 235 1.0 2.0 0.00 0.00 0.00 83 1020.4
20260504023123 55 270 0.0 2.0 0.00 0.00 0.00 83 1020.1
20260504022619 55 222 0.0 0.0 0.00 0.00 0.00 84 1020.1
20260504022115 55 231 0.0 0.0 0.00 0.00 0.00 83 1020.1
20260504021613 55 250 0.0 0.0 0.00 0.00 0.00 84 1020.1
20260504021109 56 204 0.0 0.0 0.00 0.00 0.00 82 1019.6
20260504020607 56 186 0.0 0.0 0.00 0.00 0.00 82 1019.6
20260504015559 57 228 0.0 1.0 0.00 0.00 0.00 79 1019.6
20260504015055 57 209 0.0 0.0 0.00 0.00 0.00 74 1019.3
20260504014552 57 203 0.0 0.0 0.00 0.00 0.00 71 1019.6
20260504014049 57 205 0.0 0.0 0.00 0.00 0.00 71 1019.6
20260504013546 58 199 0.0 0.0 0.00 0.00 0.00 70 1019.3
20260504013043 59 185 0.0 1.0 0.00 0.00 0.00 70 1018.9
20260504012541 59 198 0.0 0.0 0.00 0.00 0.00 69 1019.3
20260504012038 60 229 0.0 0.0 0.00 0.00 0.00 69 1019.3
20260504011535 60 236 0.0 0.0 0.00 0.00 0.00 65 1019.3
20260504011031 60 205 0.0 0.0 0.00 0.00 0.00 65 1019.3
20260504010527 60 189 0.0 0.0 0.00 0.00 0.00 61 1018.9
20260504010023 60 225 0.0 0.0 0.00 0.00 0.00 63 1018.9
20260504005520 61 225 0.0 0.0 0.00 0.00 0.00 63 1018.9
20260504005018 61 223 0.0 0.0 0.00 0.00 0.00 64 1018.9
20260504004515 62 223 0.0 0.0 0.00 0.00 0.00 62 1018.9